| time (UTC) | temp C | wind direction | speed KPH | gust KPH | rain 1hr cm | rain 24hr cm | rain mn cm | humidity % | barometer mb |
| 20260505124113 | 25 | 0.0 | 0.0 | 0.00 | 0.00 | 0.00 | 43 | 1001.2 | |
| 20260505123049 | 25 | 0.0 | 0.0 | 0.00 | 0.00 | 0.00 | 45 | 1001.0 | |
| 20260505122050 | 25 | 0.0 | 0.0 | 0.00 | 0.00 | 0.00 | 45 | 1001.1 | |
| 20260505121103 | 25 | 0.0 | 0.0 | 0.00 | 0.00 | 0.00 | 46 | 1000.9 | |
| 20260505120042 | 25 | 0.0 | 0.0 | 0.00 | 0.00 | 0.00 | 45 | 1001.0 | |
| 20260505115034 | 25 | 0.0 | 0.0 | 0.00 | 0.00 | 0.00 | 45 | 1001.2 | |
| 20260505114033 | 25 | 0.0 | 0.0 | 0.00 | 0.00 | 0.00 | 46 | 1001.2 | |
| 20260505113028 | 23 | 0.0 | 0.0 | 0.00 | 0.00 | 0.00 | 48 | 1001.2 | |
| 20260505112024 | 24 | 0.0 | 1.6 | 0.00 | 0.00 | 0.00 | 45 | 1001.1 | |
| 20260505111046 | 24 | 0.0 | 0.0 | 0.00 | 0.00 | 0.00 | 46 | 1001.1 | |
| 20260505102106 | 23 | 0.0 | 0.0 | 0.00 | 0.00 | 0.00 | 48 | 1001.6 | |
| 20260505101101 | 22 | 0.0 | 0.0 | 0.00 | 0.00 | 0.00 | 49 | 1001.6 | |
| 20260505100218 | 22 | 0.0 | 0.0 | 0.00 | 0.00 | 0.00 | 48 | 1001.8 | |
| 20260505095055 | 22 | 0.0 | 0.0 | 0.00 | 0.00 | 0.00 | 50 | 1001.8 | |
| 20260505094049 | 22 | 0.0 | 0.0 | 0.00 | 0.00 | 0.00 | 50 | 1002.0 | |
| 20260505093108 | 22 | 0.0 | 0.0 | 0.00 | 0.00 | 0.00 | 52 | 1002.0 | |
| 20260505092042 | 22 | 0.0 | 0.0 | 0.00 | 0.00 | 0.00 | 53 | 1002.1 | |
| 20260505091045 | 22 | 0.0 | 0.0 | 0.00 | 0.00 | 0.00 | 51 | 1002.0 | |
| 20260505090037 | 22 | 0.0 | 0.0 | 0.00 | 0.00 | 0.00 | 53 | 1002.1 | |
| 20260505085035 | 21 | 0.0 | 0.0 | 0.00 | 0.00 | 0.00 | 52 | 1002.2 | |
| 20260505084053 | 21 | 0.0 | 0.0 | 0.00 | 0.00 | 0.00 | 53 | 1002.3 | |
| 20260505083023 | 21 | 0.0 | 0.0 | 0.00 | 0.00 | 0.00 | 55 | 1002.2 | |
| 20260505082019 | 21 | 0.0 | 0.0 | 0.00 | 0.00 | 0.00 | 54 | 1002.2 | |
| 20260505081016 | 21 | 0.0 | 0.0 | 0.00 | 0.00 | 0.00 | 56 | 1002.3 | |
| 20260505080114 | 20 | 0.0 | 0.0 | 0.00 | 0.00 | 0.00 | 57 | 1002.2 | |
| 20260505075109 | 20 | 0.0 | 0.0 | 0.00 | 0.00 | 0.00 | 58 | 1002.4 | |
| 20260505074106 | 20 | 0.0 | 0.0 | 0.00 | 0.00 | 0.00 | 58 | 1002.3 | |
| 20260505073103 | 19 | 0.0 | 0.0 | 0.00 | 0.00 | 0.00 | 58 | 1002.3 | |
| 20260505072109 | 19 | 0.0 | 0.0 | 0.00 | 0.00 | 0.00 | 58 | 1002.4 | |
| 20260505071055 | 19 | 0.0 | 0.0 | 0.00 | 0.00 | 0.00 | 60 | 1002.4 | |
| 20260505070052 | 18 | 0.0 | 0.0 | 0.00 | 0.00 | 0.00 | 61 | 1002.4 | |
| 20260505065129 | 18 | 0.0 | 0.0 | 0.00 | 0.00 | 0.00 | 61 | 1002.4 | |
| 20260505064045 | 18 | 0.0 | 0.0 | 0.00 | 0.00 | 0.00 | 62 | 1002.3 | |
| 20260505063044 | 17 | 0.0 | 0.0 | 0.00 | 0.00 | 0.00 | 61 | 1002.3 | |
| 20260505062103 | 17 | 0.0 | 0.0 | 0.00 | 0.00 | 0.00 | 63 | 1002.4 | |
| 20260505061035 | 17 | 0.0 | 0.0 | 0.00 | 0.00 | 0.00 | 66 | 1002.3 | |
| 20260505060030 | 17 | 0.0 | 0.0 | 0.00 | 0.00 | 0.00 | 70 | 1002.0 | |
| 20260505055028 | 16 | 0.0 | 0.0 | 0.00 | 0.00 | 0.00 | 70 | 1002.6 | |
| 20260505054029 | 16 | 0.0 | 0.0 | 0.00 | 0.00 | 0.00 | 70 | 1002.9 | |
| 20260505053020 | 16 | 0.0 | 0.0 | 0.00 | 0.00 | 0.00 | 71 | 1003.2 | |
| 20260505052016 | 16 | 0.0 | 0.0 | 0.00 | 0.00 | 0.00 | 71 | 1003.3 | |
| 20260505051133 | 16 | 0.0 | 0.0 | 0.00 | 0.00 | 0.00 | 71 | 1003.4 | |
| 20260505050108 | 15 | 0.0 | 0.0 | 0.00 | 0.00 | 0.00 | 72 | 1003.4 | |
| 20260505041052 | 14 | 0.0 | 0.0 | 0.00 | 0.00 | 0.00 | 74 | 1003.5 | |
| 20260505040050 | 14 | 0.0 | 0.0 | 0.00 | 0.00 | 0.00 | 75 | 1003.5 | |
| 20260505035049 | 14 | 0.0 | 0.0 | 0.00 | 0.00 | 0.00 | 76 | 1003.6 | |
| 20260505034103 | 14 | 0.0 | 0.0 | 0.00 | 0.00 | 0.00 | 79 | 1003.6 | |
| 20260505033041 | 13 | 0.0 | 0.0 | 0.00 | 0.00 | 0.00 | 80 | 1003.7 | |
| 20260505032036 | 13 | 0.0 | 0.0 | 0.00 | 0.00 | 0.00 | 80 | 1003.7 | |
| 20260505031030 | 13 | 0.0 | 0.0 | 0.00 | 0.00 | 0.00 | 81 | 1003.9 | |
| 20260505030028 | 13 | 0.0 | 0.0 | 0.00 | 0.00 | 0.00 | 82 | 1004.1 | |
| 20260505025026 | 13 | 0.0 | 0.0 | 0.00 | 0.00 | 0.00 | 82 | 1004.2 | |
| 20260505024039 | 12 | 0.0 | 0.0 | 0.00 | 0.00 | 0.00 | 82 | 1004.3 | |
| 20260505023016 | 12 | 0.0 | 0.0 | 0.00 | 0.00 | 0.00 | 84 | 1004.5 | |
| 20260505022113 | 12 | 0.0 | 0.0 | 0.00 | 0.00 | 0.00 | 82 | 1004.7 | |
| 20260505021129 | 12 | 0.0 | 0.0 | 0.00 | 0.00 | 0.00 | 84 | 1004.6 | |
| 20260505020105 | 12 | 0.0 | 0.0 | 0.00 | 0.00 | 0.00 | 85 | 1004.6 | |
| 20260505015102 | 12 | 0.0 | 0.0 | 0.00 | 0.00 | 0.00 | 85 | 1004.7 | |
| 20260505014118 | 12 | 0.0 | 0.0 | 0.00 | 0.00 | 0.00 | 85 | 1004.7 | |
| 20260505013112 | 12 | 0.0 | 0.0 | 0.00 | 0.00 | 0.00 | 85 | 1004.8 | |
| 20260505012051 | 12 | 0.0 | 0.0 | 0.00 | 0.00 | 0.00 | 85 | 1004.9 | |
| 20260505011046 | 12 | 0.0 | 0.0 | 0.00 | 0.00 | 0.00 | 84 | 1004.9 | |
| 20260505010042 | 12 | 0.0 | 0.0 | 0.00 | 0.00 | 0.00 | 84 | 1004.9 | |
| 20260505005100 | 12 | 0.0 | 0.0 | 0.00 | 0.00 | 0.00 | 83 | 1004.8 | |
| 20260505004036 | 12 | 0.0 | 0.0 | 0.00 | 0.00 | 0.00 | 82 | 1004.8 | |
| 20260505003032 | 12 | 0.0 | 0.0 | 0.00 | 0.00 | 0.00 | 82 | 1004.9 | |
| 20260505002029 | 12 | 0.0 | 0.0 | 0.00 | 0.00 | 0.00 | 82 | 1004.9 | |
| 20260505001027 | 12 | 0.0 | 0.0 | 0.00 | 0.00 | 0.00 | 79 | 1004.9 | |
| 20260505000025 | 12 | 0.0 | 0.0 | 0.00 | 0.00 | 0.00 | 78 | 1005.0 | |
| 20260504235020 | 13 | 0.0 | 0.0 | 0.00 | 0.00 | 0.00 | 78 | 1005.1 | |
| 20260504234136 | 13 | 0.0 | 0.0 | 0.00 | 0.00 | 0.00 | 77 | 1005.1 | |
| 20260504233130 | 13 | 0.0 | 0.0 | 0.00 | 0.00 | 0.00 | 77 | 1005.1 | |
| 20260504232106 | 13 | 0.0 | 0.0 | 0.00 | 0.00 | 0.00 | 77 | 1005.0 | |
| 20260504231144 | 13 | 0.0 | 0.0 | 0.00 | 0.00 | 0.00 | 76 | 1005.2 | |
| 20260504230120 | 13 | 0.0 | 0.0 | 0.00 | 0.00 | 0.00 | 76 | 1005.2 | |
| 20260504225056 | 13 | 0.0 | 0.0 | 0.00 | 0.00 | 0.00 | 76 | 1005.3 | |
| 20260504224058 | 13 | 0.0 | 0.0 | 0.00 | 0.00 | 0.00 | 76 | 1005.3 | |
| 20260504223053 | 13 | 0.0 | 0.0 | 0.00 | 0.00 | 0.00 | 75 | 1005.4 | |
| 20260504222052 | 13 | 0.0 | 0.0 | 0.00 | 0.00 | 0.00 | 75 | 1005.4 | |
| 20260504221045 | 13 | 0.0 | 0.0 | 0.00 | 0.00 | 0.00 | 74 | 1005.4 | |
| 20260504220142 | 13 | 0.0 | 0.0 | 0.00 | 0.00 | 0.00 | 74 | 1005.5 | |
| 20260504215035 | 13 | 0.0 | 0.0 | 0.00 | 0.00 | 0.00 | 73 | 1005.5 | |
| 20260504214127 | 14 | 0.0 | 0.0 | 0.00 | 0.00 | 0.00 | 72 | 1005.6 | |
| 20260504213035 | 14 | 0.0 | 0.0 | 0.00 | 0.00 | 0.00 | 71 | 1005.6 | |
| 20260504212057 | 15 | 0.0 | 0.0 | 0.00 | 0.00 | 0.00 | 71 | 1005.6 | |
| 20260504211039 | 15 | 0.0 | 0.0 | 0.00 | 0.00 | 0.00 | 70 | 1005.7 | |
| 20260504210043 | 15 | 0.0 | 0.0 | 0.00 | 0.00 | 0.00 | 69 | 1005.7 | |
| 20260504205134 | 15 | 0.0 | 0.0 | 0.00 | 0.00 | 0.00 | 68 | 1005.6 | |
| 20260504204114 | 16 | 0.0 | 0.0 | 0.00 | 0.00 | 0.00 | 66 | 1005.6 | |
| 20260504203109 | 16 | 0.0 | 0.0 | 0.00 | 0.00 | 0.00 | 65 | 1005.7 | |
| 20260504202104 | 16 | 0.0 | 0.0 | 0.00 | 0.00 | 0.00 | 64 | 1005.7 | |
| 20260504201120 | 17 | 0.0 | 0.0 | 0.00 | 0.00 | 0.00 | 64 | 1005.6 | |
| 20260504200119 | 17 | 0.0 | 0.0 | 0.00 | 0.00 | 0.00 | 64 | 1005.7 | |
| 20260504195103 | 17 | 0.0 | 0.0 | 0.00 | 0.00 | 0.00 | 64 | 1005.6 | |
| 20260504194119 | 17 | 0.0 | 0.0 | 0.00 | 0.00 | 0.00 | 63 | 1005.5 | |
| 20260504193055 | 17 | 0.0 | 0.0 | 0.00 | 0.00 | 0.00 | 60 | 1005.5 | |
| 20260504192043 | 17 | 0.0 | 0.0 | 0.00 | 0.00 | 0.00 | 58 | 1005.4 | |
| 20260504191038 | 18 | 0.0 | 0.0 | 0.00 | 0.00 | 0.00 | 56 | 1005.3 | |
| 20260504190040 | 18 | 0.0 | 0.0 | 0.00 | 0.00 | 0.00 | 55 | 1005.4 | |
| 20260504185031 | 18 | 0.0 | 0.0 | 0.00 | 0.00 | 0.00 | 54 | 1005.2 | |
| 20260504184035 | 19 | 0.0 | 0.0 | 0.00 | 0.00 | 0.00 | 53 | 1005.1 | |
| 20260504183052 | 20 | 0.0 | 0.0 | 0.00 | 0.00 | 0.00 | 51 | 1005.1 | |
| 20260504182021 | 20 | 0.0 | 0.0 | 0.00 | 0.00 | 0.00 | 50 | 1005.1 | |
| 20260504181022 | 21 | 0.0 | 0.0 | 0.00 | 0.00 | 0.00 | 48 | 1005.1 | |
| 20260504180122 | 22 | 0.0 | 0.0 | 0.00 | 0.00 | 0.00 | 47 | 1005.0 | |
| 20260504175113 | 22 | 0.0 | 0.0 | 0.00 | 0.00 | 0.00 | 42 | 1005.1 | |
| 20260504174126 | 22 | 0.0 | 0.0 | 0.00 | 0.00 | 0.00 | 41 | 1005.0 | |
| 20260504173104 | 23 | 0.0 | 0.0 | 0.00 | 0.00 | 0.00 | 41 | 1005.1 | |
| 20260504172100 | 23 | 0.0 | 0.0 | 0.00 | 0.00 | 0.00 | 39 | 1005.0 | |
| 20260504171116 | 23 | 0.0 | 0.0 | 0.00 | 0.00 | 0.00 | 38 | 1005.0 | |
| 20260504151113 | 26 | 0.0 | 0.0 | 0.00 | 0.00 | 0.00 | 32 | 1005.1 | |
| 20260504150111 | 27 | 0.0 | 0.0 | 0.00 | 0.00 | 0.00 | 31 | 1005.2 | |
| 20260504141051 | 28 | 0.0 | 0.0 | 0.00 | 0.00 | 0.00 | 26 | 1005.3 |